FENGYUN 1C DEB, 29857

Orbit data source: Space-Track

FENGYUN 1C DEB, 29857 is space debris in SSO originally from a launch on Mon, 10 May 1999 UTC launched from the Taiyaun Space Center, China (TSC). Fengyun 1C debris stems from the Chinese weather satellite Fengyun-1C, which was intentionally destroyed by a Chinese anti-satellite missile in 2007. This event dramatically increased the amount of space debris, with thousands of trackable fragments posing hazards to satellites and human spaceflight. The Fengyun 1C debris cloud has become a focal point in discussions about space sustainability and the need for international regulations to prevent the creation of new debris.

Loading next visibility...
Identifier
29857, 1999-025FB
Orbit
SSO
Country
Flag of CNCN / PRC
Related business
Manufacturer
Unknown
Mission
Spacecraft
Bus & Motor
Unknown
Mass
Unknown
Launch date (UTC)
1999-05-10 (27 years ago)
Launch vehicle
Unknown
Launch site
Taiyaun Space Center, China (TSC)
Object type
Payload
Rocket body
Debris
Shape & HBR
Unknown shape, 0.1 m
Radar Cross Section
Small (<0.1 m²)

Expand to show TLE details & history
Last TLE update: 1 day ago

TLE from 1 day ago
0 FENGYUN 1C DEB
1 29857U 99025FB  26137.93520074  .00001099  00000-0  91448-3 0  9993
2 29857  98.4261 133.8461 0190244 227.6233 130.8685 13.82455268969339
Epoch: 2026-05-17T22:26Z
TLE epoch observation values (Epoch: 2026-05-17T22:26:41.343Z)
Latitude
-0.00001°
Longitude
-78.45684°
Altitude
1,050.857 km
Speed
7.28 km/s
True Right ascension
08h 55m 23s
True Declination
0° 00' 00"
Sunlit
Object was in daylight at epoch
Visualization orbit readout
Latitude
Unknown
Longitude
Unknown
Altitude
Unknown
Speed
Unknown
Apparent Right ascension
Unknown
Apparent Declination
Unknown
Sunlit
N/A
Visualization observer readout
Local Sidereal Time
09:15:44
Azimuth
Unknown
Elevation
Unknown
Doppler factor
Unknown
Orbital elements
Apogee altitude
1,091.844 km
Perigee altitude
812.927 km
Semi-major axis
7,330.522 km
Eccentricity
0.01902
Inclination
98.4261°
RAAN
133.8461°
Arg. of periapsis
227.6233°
True anomaly
132.49158°
Mean anomaly
130.8685°
Eccentric anomaly
131.68257°
Mean motion
3.45813 °/min
Orbital period
104.1 mins
BSTAR
0.00091448
Loading maneuver chart data...
Computing Atmospheric mass density...
Loading historical data...
Loading historical data...
Loading historical data...
Loading historical data...
Loading historical data...
Loading historical data...
Loading historical data...

Documentation

Showing up to 5 results
|